Regional Weather Roundup
Issued by NWS

Home | Current Version | Previous Version | Text Only | Print | Product List | Glossary On
Versions: 1 2 3 4 5 6 7 8 9 10 11 12 13 14 15 16 17 18 19 20 21 22 23 24 25 26 27 28 29 30 31 32 33 34 35 36 37 38 39 40 41 42 43 44 45 46 47 48 49 50
000
ASUS45 KTFX 010010
RWRMT
MONTANA REGIONAL WEATHER ROUNDUP
NATIONAL WEATHER SERVICE GREAT FALLS MT
600 PM MDT FRI JUL 31 2015

NOTE: "FAIR" INDICATES FEW OR NO CLOUDS BELOW 12000 FEET WITH NO
SIGNIFICANT WEATHER AND/OR OBSTRUCTIONS TO VISIBILITY.

MTZ001>007-043-010100-
WEST OF THE DIVIDE

CITY           SKY/WX    TMP DP  RH WIND       PRES   REMARKS
KALISPELL      CLEAR     94  33  11 S12       30.02F
MISSOULA       SUNNY     93  29  10 VRB6      30.07F
BUTTE          SUNNY     85  27  12 NW10      30.25F
MULLAN PASS    SUNNY     82  29  14 CALM      30.30F
DEER LODGE       N/A     88  27  11 N9        30.22F
EUREKA           N/A     97  28   9 SW12      30.00F HX  91
HAMILTON         N/A     95  30  10 S3        30.10F
LIBBY            N/A     97  27   8 W12G18    30.01F HX  90
PLAINS           N/A     99  35  10 W14       30.01F HX  93
RONAN            N/A     94  35  12 SE2       30.10F
$$

MTZ008-052>055-010100-
SOUTHWEST MONTANA

CITY           SKY/WX    TMP DP  RH WIND       PRES   REMARKS
BOZEMAN        SUNNY     89  35  14 NE6       30.17F
DILLON         SUNNY     88  32  13 NE6       30.21F
W YELLOWSTONE  SUNNY     79  30  17 W5        30.34F
THREE FORKS      N/A     90  28  11 E5        30.13F
TWIN BRIDGES     N/A     89  35  14 E7        30.16F
$$

MTZ009-010-012-014-046-048-049-054-010100-
EAST SLOPES AND CENTRAL MONTANA

CITY           SKY/WX    TMP DP  RH WIND       PRES   REMARKS
CUT BANK       SUNNY     91  25   9 NW13      30.07F
GREAT FALLS    SUNNY     91  26   9 VRB3      30.09F
MALMSTROM AFB  SUNNY     90  29  11 W6        30.08F
HELENA         SUNNY     95  28   9 NW5       30.11F
CONRAD           N/A     91  29  11 E3        30.09F
$$

MTZ011-013-016-021-045-047-050-051-010100-
NORTH CENTRAL MONTANA

CITY           SKY/WX    TMP DP  RH WIND       PRES   REMARKS
HAVRE          SUNNY     92  33  12 NW9G21    30.02F
LEWISTOWN      SUNNY     88  39  17 NW7       30.14F
CHINOOK          N/A     91  34  13 W9G16     30.00F
FORT BENTON      N/A     93  34  12 NW3       30.04F
$$

MTZ017>020-022>027-061-062-010100-
NORTHEAST MONTANA

CITY           SKY/WX    TMP DP  RH WIND       PRES   REMARKS
GLASGOW        SUNNY     93  42  17 NW6       29.98F
JORDAN           N/A     94  35  12 W14G24    30.01F
SIDNEY         SUNNY    N/A N/A N/A CALM      29.99F
WOLF POINT     SUNNY     92  45  19 E7        29.97F
MALTA            N/A     92  47  21 W5        29.97F
PLENTYWOOD       N/A     82  48  30 E10       30.04F
POPLAR           N/A     93  45  18 CALM      29.98F
SCOBEY           N/A     88  49  25 E8        30.02F
$$

MTZ028>42-056>058-010100-
SOUTHCENTRAL AND SOUTHEAST MONTANA

CITY           SKY/WX    TMP DP  RH WIND       PRES   REMARKS
BAKER          SUNNY     92  39  15 SE9       30.07F
BILLINGS       MOSUNNY   94  34  12 N8        30.08F
LIVINGSTON     SUNNY     91  23   8 NW15G24   30.17F
MILES CITY     SUNNY     97  37  12 W10       30.00F HX  92
EKALAKA          N/A     89  35  14 W5        30.07F
FORSYTH          N/A     95  37  13 W8        30.00F HX  90
LAUREL           N/A     95  36  12 NW9       30.06F HX  90
ROUNDUP          N/A     93  39  15 N7        29.99F
$$

REGIONAL REPORTS...DAKOTAS

CITY           SKY/WX    TMP DP  RH WIND       PRES   REMARKS
WILLISTON      SUNNY     89  44  20 VRB3      30.03F
MINOT          SUNNY     81  46  29 NW8       30.04F
DICKINSON      SUNNY     86  50  28 E8        30.05F
BEACH          FAIR      86  45  23 E5        30.06F
CROSBY         FAIR      81  46  30 CALM      30.06F
BISMARCK       SUNNY     86  53  32 NW6       30.04F
GRAND FORKS    SUNNY     80  49  33 NW12      29.96F
FARGO          SUNNY     82  55  39 NW9       29.98F
BUFFALO SD       N/A     89  41  18 E12       30.02F
RAPID CITY     SUNNY     86  55  34 NE8       30.11F
$$

REGIONAL REPORTS...WYOMING/IDAHO/WASHINGTON

CITY           SKY/WX    TMP DP  RH WIND       PRES   REMARKS
GILLETTE       MOSUNNY   92  41  17 NE13      30.13F
SHERIDAN       SUNNY     93  34  12 CALM      30.11F
BUFFALO WY     SUNNY     90  37  15 N9        30.18F
CODY           MOSUNNY   84  43  23 N9        30.18F
YELLOWSTONE LA   N/A     74  29  19 CALM      30.44F
IDAHO FALLS    SUNNY     91  30  11 VRB6      30.19F
SALMON         SUNNY     91  37  15 CALM      30.10F
BOISE          SUNNY     98  36  11 NW13      30.04F HX  93
SPOKANE        PTSUNNY   98  22   6 SW15G21   30.00F HX  91
$$

REGIONAL REPORTS...ALBERTA

CITY           SKY/WX    TMP DP  RH WIND       PRES   REMARKS
EDMONTON       SUNNY     82  50  32 W8        29.95F
CALGARY        MOSUNNY   88  43  20 E14G21    30.00F
LETHBRIDGE     MOSUNNY   93  36  13 SW15      29.98F
MEDICINE HAT   SUNNY     91  36  14 SW7       29.98F
MILK RIVER       N/A     91  30  11 W12         N/A
ONEFOUR          N/A     88  32  13 NW5         N/A
$$

REGIONAL REPORTS...SASKATCHEWAN

CITY           SKY/WX    TMP DP  RH WIND       PRES   REMARKS
SWIFT CURRENT  SUNNY     81  50  34 E14       30.05F
REGINA         MOSUNNY   81  50  34 N3        30.05F
SASKATOON      MOSUNNY   79  50  36 SW9       30.03F
CYPRESS HILLS    N/A     81  36  19 W7          N/A
VAL MARIE        N/A     88  43  20 NW5         N/A
ROCKGLEN         N/A     81  50  34 NE6         N/A
ASSINIBOIA       N/A     81  50  34 S5          N/A
$$


USA.gov is the U.S. government's official web portal to all federal, state and local government web resources and services.